Content
SEND FEEDBACK

Daily
Averages
Monthly
Summary
India

HYDERABAD, INDIA


Home > Asia > India
Elevation: 1788 feet     Latitude: 17 27N     Longitude: 078 28E

WEATHER
 
SELECT A DAY
Number of Records: 125,589;   Date Range: 12/24/96 - 7/28/14
 
SHARE

PRINT THIS DATA

[ ← Previous Day ]
WEATHER ALMANAC - MARCH 16, 2013
[ Next Day → ]
[ °C ]   °F
Weather ElementAverageHighLow
Temperature86.5 °F95 °F (1:10 pm)66.2 °F (6:10 am)
Dewpoint47.2 °F64.4 °F (6:10 pm)35.6 °F (12:10 pm)
Humidity24.5 %46 % (6:10 am)11 % (11:30 am)
Barometer28.56 in30.09 in (9:10 am) (7:00 pm)
Wind Speed6.8 mph12.7 mph (11:30 am)
Weather ElementAverage
Visibility3.8 mi
Wind DirectionESE (118.1 °)

Weather ElementTotal
Precipitation---
Cooling Degree Days15.6 (Base 65)
Growing Degree Days30.6 (Base 50)
Averaged from 21 records on March 16, 2013
WEATHER CONDITIONS BREAKOUT
WIND DIRECTION BREAKOUT
WEATHER BY HOUR - MARCH 16, 2013
[ °C ]   °F
Local TimeTemperatureDewpointHumidityBarometerVisibilityWind DirectionWind SpeedGust SpeedPrecipitationEventsConditions
5:30 AM74.0 °F52.0 °F35 %29.92 in2.0 miSE (140°)2.3 mphHaze
6:10 AM66.2 °F44.6 °F46 %30.06 in1.9 miCalmHaze
8:30 AM78.0 °F49.0 °F25 %29.97 in6.0 miSE (140°)4.6 mph
9:10 AM82.4 °F44.6 °F26 %30.09 in3.1 miSSE (150°)9.2 mphHaze
11:10 AM91.4 °F37.4 °F15 %30.09 in3.7 miESE (120°)6.9 mph
11:30 AM88.0 °F41.0 °F11 %29.94 in6.0 miSE (140°)12.7 mph
12:10 PM93.2 °F35.6 °F13 %30.09 in3.7 miSouth (170°)8.1 mph
1:10 PM95.0 °F35.6 °F12 %30.04 in3.7 miSouth (180°)6.9 mph
2:30 PM91.0 °F46.0 °F13 %29.86 in6.0 miSE (140°)5.8 mph
2:30 PM95.0 °F51.8 °F23 %30.01 in3.7 miSE (140°)5.8 mph
2:40 PM95.0 °F51.8 °F23 %30.01 in3.7 miSE (140°)5.8 mph
3:10 PM95.0 °F44.6 °F18 %29.98 in3.7 miSE (140°)5.8 mph
4:10 PM93.2 °F41.0 °F16 %29.98 in3.7 miEast (90°)9.2 mph
5:10 PM91.4 °F44.6 °F20 %29.98 in3.7 miEast (90°)9.2 mph
5:30 PM89.0 °F50.0 °F17 %29.84 in6.0 miESE (110°)10.4 mph
6:10 PM87.8 °F64.4 °F46 %29.98 in3.7 miEast (90°)6.9 mph
7:10 PM84.2 °F48.2 °F29 %30.01 in3.7 miESE (110°)6.9 mph
8:10 PM82.4 °F50.0 °F32 %3.7 miEast (90°)6.9 mph
8:30 PM83.0 °F55.0 °F28 %29.91 in2.0 miEast (90°)5.8 mphClear
9:10 PM80.6 °F50.0 °F34 %30.04 in3.7 miEast (90°)6.9 mph
11:30 PM80.0 °F55.0 °F32 %29.93 in2.0 miESE (120°)6.9 mph
Hourly data recorded from VOHY, located miles away from Hyderabad, India







STORIES FROM OUR PARTNERS